�������l�o���
Date,Time,MP-1(��Sv/h),MP-2(��Sv/h),MP-3(��Sv/h),MP-4(��Sv/h),MP-5(��Sv/h),MP-6(��Sv/h),MP-7(��Sv/h),MP-8(��Sv/h),����,����(m/s),���J
2022/01/29,00:00,0.584,0.874,0.556,1.074,0.754,0.351,0.611,0.579,���k��,8.5,��
2022/01/29,00:10,0.586,0.875,0.554,1.074,0.756,0.349,0.612,0.579,���k��,6.0,��
2022/01/29,00:20,0.586,0.873,0.556,1.076,0.753,0.351,0.611,0.579,���k��,4.6,��
2022/01/29,00:30,0.586,0.872,0.554,1.073,0.755,0.351,0.611,0.579,���k��,5.0,��
2022/01/29,00:40,0.585,0.873,0.556,1.075,0.754,0.352,0.612,0.578,���k��,6.3,��
2022/01/29,00:50,0.587,0.873,0.555,1.075,0.754,0.352,0.611,0.580,���k��,6.3,��
2022/01/29,01:00,0.584,0.874,0.556,1.074,0.755,0.352,0.612,0.580,��,4.1,��
2022/01/29,01:10,0.585,0.873,0.555,1.074,0.753,0.351,0.612,0.580,���k��,3.2,��
2022/01/29,01:20,0.585,0.873,0.557,1.074,0.753,0.352,0.612,0.580,�k�k��,1.7,��
2022/01/29,01:30,0.584,0.873,0.553,1.074,0.754,0.351,0.613,0.579,�k��,1.1,��
2022/01/29,01:40,0.585,0.873,0.555,1.076,0.753,0.352,0.612,0.581,��,0.9,��
2022/01/29,01:50,0.585,0.875,0.555,1.074,0.755,0.352,0.612,0.581,�k��,0.8,��
2022/01/29,02:00,0.585,0.872,0.554,1.076,0.753,0.351,0.611,0.579,-,CALM,��
2022/01/29,02:10,0.583,0.875,0.555,1.074,0.754,0.353,0.610,0.579,�k,0.8,��
2022/01/29,02:20,0.584,0.874,0.556,1.074,0.752,0.352,0.611,0.579,�k�k��,1.2,��
2022/01/29,02:30,0.583,0.872,0.555,1.075,0.755,0.351,0.611,0.580,�k��,0.6,��
2022/01/29,02:40,0.585,0.873,0.556,1.074,0.754,0.351,0.610,0.580,�k��,1.1,��
2022/01/29,02:50,0.584,0.875,0.555,1.075,0.753,0.351,0.610,0.579,�k,2.0,��
2022/01/29,03:00,0.585,0.872,0.555,1.074,0.754,0.352,0.611,0.580,�k,2.5,��
2022/01/29,03:10,0.583,0.872,0.554,1.073,0.752,0.352,0.611,0.579,�k�k��,3.8,��
2022/01/29,03:20,0.583,0.873,0.554,1.074,0.754,0.351,0.611,0.579,�k�k��,3.3,��
2022/01/29,03:30,0.585,0.876,0.554,1.073,0.753,0.351,0.612,0.580,�k,3.0,��
2022/01/29,03:40,0.584,0.871,0.555,1.075,0.753,0.351,0.610,0.579,�k,2.3,��
2022/01/29,03:50,0.584,0.872,0.555,1.075,0.754,0.350,0.611,0.579,�k,2.3,��
2022/01/29,04:00,0.584,0.873,0.553,1.074,0.753,0.351,0.611,0.579,�k,1.2,��
2022/01/29,04:10,0.583,0.875,0.554,1.076,0.753,0.350,0.612,0.581,�k�k��,0.8,��
2022/01/29,04:20,0.584,0.871,0.554,1.075,0.753,0.352,0.611,0.579,-,CALM,��
2022/01/29,04:30,0.584,0.872,0.554,1.072,0.753,0.350,0.610,0.579,�k�k��,0.8,��
2022/01/29,04:40,0.583,0.873,0.554,1.073,0.754,0.351,0.611,0.578,-,CALM,��
2022/01/29,04:50,0.583,0.874,0.554,1.074,0.753,0.350,0.611,0.579,��,0.6,��
2022/01/29,05:00,0.585,0.872,0.554,1.073,0.754,0.352,0.612,0.581,��,1.5,��
2022/01/29,05:10,0.583,0.873,0.555,1.075,0.751,0.350,0.613,0.580,���쐼,2.9,��
2022/01/29,05:20,0.584,0.871,0.553,1.073,0.752,0.351,0.613,0.578,���쐼,3.4,��
2022/01/29,05:30,0.584,0.872,0.554,1.074,0.752,0.351,0.611,0.579,��,2.6,��
2022/01/29,05:40,0.583,0.873,0.553,1.073,0.752,0.350,0.610,0.579,��,2.3,��
2022/01/29,05:50,0.584,0.874,0.554,1.074,0.753,0.351,0.610,0.580,�쐼,2.6,��
2022/01/29,06:00,0.584,0.871,0.554,1.074,0.753,0.350,0.611,0.580,�쐼,2.5,��
2022/01/29,06:10,0.584,0.875,0.552,1.076,0.752,0.352,0.610,0.581,���쐼,2.5,��
2022/01/29,06:20,0.584,0.872,0.552,1.072,0.753,0.352,0.611,0.579,�쐼,3.3,��
2022/01/29,06:30,0.583,0.871,0.553,1.073,0.751,0.351,0.611,0.580,���쐼,2.8,��
2022/01/29,06:40,0.585,0.871,0.555,1.073,0.752,0.351,0.611,0.579,���쐼,2.6,��
2022/01/29,06:50,0.583,0.872,0.553,1.074,0.750,0.352,0.611,0.578,��,2.0,��
2022/01/29,07:00,0.586,0.871,0.555,1.074,0.752,0.352,0.611,0.579,���쐼,2.6,��
2022/01/29,07:10,0.584,0.871,0.554,1.073,0.753,0.351,0.611,0.580,���쐼,2.9,��
2022/01/29,07:20,0.586,0.874,0.554,1.071,0.753,0.351,0.609,0.581,���쐼,2.8,��
2022/01/29,07:30,0.584,0.873,0.553,1.072,0.753,0.350,0.611,0.581,���쐼,3.2,��
2022/01/29,07:40,0.584,0.873,0.555,1.076,0.751,0.351,0.611,0.578,���쐼,3.9,��
2022/01/29,07:50,0.582,0.872,0.553,1.074,0.753,0.350,0.612,0.579,�쐼,4.5,��
2022/01/29,08:00,0.585,0.872,0.554,1.072,0.754,0.352,0.610,0.579,�쐼,5.4,��
2022/01/29,08:10,0.583,0.874,0.554,1.073,0.754,0.352,0.609,0.579,�쐼,4.8,��
2022/01/29,08:20,0.586,0.872,0.555,1.073,0.754,0.351,0.612,0.580,�쐼,4.1,��
2022/01/29,08:30,0.585,0.874,0.553,1.074,0.752,0.353,0.611,0.579,�쐼,3.2,��
2022/01/29,08:40,0.585,0.874,0.554,1.075,0.753,0.353,0.611,0.580,���쐼,3.3,��
2022/01/29,08:50,0.585,0.874,0.554,1.074,0.753,0.351,0.612,0.578,���k��,3.1,��
2022/01/29,09:00,0.585,0.873,0.554,1.074,0.752,0.352,0.613,0.578,��,3.3,��
2022/01/29,09:10,0.586,0.874,0.555,1.075,0.752,0.352,0.614,0.578,��,4.2,��
2022/01/29,09:20,0.586,0.873,0.555,1.074,0.752,0.353,0.614,0.580,��,3.1,��
2022/01/29,09:30,0.585,0.873,0.555,1.075,0.753,0.351,0.614,0.579,��,3.2,��
2022/01/29,09:40,0.587,0.873,0.555,1.075,0.753,0.352,0.613,0.580,��,3.7,��
2022/01/29,09:50,0.587,0.873,0.556,1.070,0.753,0.352,0.613,0.580,��,4.7,��
2022/01/29,10:00,0.584,0.873,0.555,1.075,0.754,0.352,0.611,0.581,��,4.6,��
2022/01/29,10:10,0.585,0.874,0.553,1.075,0.751,0.353,0.612,0.581,��,5.0,��
2022/01/29,10:20,0.587,0.873,0.554,1.075,0.755,0.351,0.610,0.580,���쐼,4.0,��
2022/01/29,10:30,0.586,0.872,0.556,1.076,0.755,0.352,0.610,0.581,��,5.0,��
2022/01/29,10:40,0.587,0.875,0.555,1.073,0.751,0.353,0.613,0.581,���쐼,3.7,��
2022/01/29,10:50,0.586,0.874,0.555,1.075,0.752,0.352,0.612,0.580,��,4.4,��
2022/01/29,11:00,0.586,0.873,0.556,1.075,0.752,0.353,0.610,0.582,���쐼,3.3,��
2022/01/29,11:10,0.587,0.875,0.555,1.077,0.754,0.351,0.612,0.580,�쐼,2.0,��
2022/01/29,11:20,0.587,0.873,0.556,1.076,0.754,0.352,0.612,0.581,���쐼,4.1,��
2022/01/29,11:30,0.589,0.875,0.556,1.075,0.754,0.352,0.612,0.581,�쐼,3.1,��
2022/01/29,11:40,0.585,0.873,0.556,1.075,0.755,0.353,0.612,0.580,���쐼,3.4,��
2022/01/29,11:50,0.587,0.872,0.556,1.074,0.756,0.353,0.612,0.582,��쐼,5.0,��
2022/01/29,12:00,0.587,0.873,0.557,1.075,0.757,0.353,0.611,0.580,��,4.2,��
2022/01/29,12:10,0.587,0.876,0.556,1.075,0.758,0.352,0.612,0.582,��,3.1,��
2022/01/29,12:20,0.588,0.873,0.555,1.076,0.756,0.353,0.613,0.581,�k��,3.1,��
2022/01/29,12:30,0.589,0.872,0.558,1.076,0.757,0.353,0.612,0.581,���k��,5.0,��
2022/01/29,12:40,0.590,0.875,0.558,1.076,0.757,0.353,0.611,0.583,��,5.4,��
2022/01/29,12:50,0.588,0.875,0.558,1.076,0.758,0.353,0.613,0.581,���k��,4.4,��
2022/01/29,13:00,0.589,0.875,0.558,1.077,0.755,0.353,0.612,0.582,��,5.1,��
2022/01/29,13:10,0.588,0.875,0.557,1.076,0.756,0.353,0.612,0.583,��,4.0,��
2022/01/29,13:20,0.588,0.873,0.556,1.079,0.758,0.353,0.612,0.582,��,4.0,��
2022/01/29,13:30,0.589,0.874,0.557,1.075,0.757,0.354,0.612,0.581,��,4.2,��
2022/01/29,13:40,0.589,0.874,0.557,1.078,0.758,0.355,0.613,0.583,��,4.8,��
2022/01/29,13:50,0.590,0.875,0.558,1.077,0.756,0.353,0.613,0.582,���k��,4.5,��
2022/01/29,14:00,0.591,0.873,0.557,1.078,0.758,0.353,0.614,0.582,���k��,5.3,��
2022/01/29,14:10,0.589,0.876,0.558,1.074,0.759,0.353,0.613,0.583,��,3.8,��
2022/01/29,14:20,0.590,0.873,0.558,1.077,0.758,0.353,0.613,0.581,��,4.5,��
2022/01/29,14:30,0.591,0.874,0.557,1.078,0.759,0.353,0.614,0.582,���k��,5.8,��
2022/01/29,14:40,0.588,0.877,0.558,1.078,0.761,0.353,0.614,0.581,���k��,4.2,��
2022/01/29,14:50,0.590,0.876,0.557,1.079,0.760,0.353,0.614,0.583,��,2.9,��
2022/01/29,15:00,0.589,0.876,0.558,1.077,0.759,0.353,0.613,0.583,�k��,2.6,��
2022/01/29,15:10,0.591,0.877,0.557,1.077,0.759,0.354,0.614,0.583,�k��,3.1,��
2022/01/29,15:20,0.590,0.878,0.558,1.079,0.759,0.354,0.614,0.582,��,1.5,��
2022/01/29,15:30,0.589,0.878,0.557,1.077,0.759,0.354,0.615,0.583,�k��,2.0,��
2022/01/29,15:40,0.589,0.877,0.558,1.078,0.758,0.353,0.613,0.582,���k��,4.0,��
2022/01/29,15:50,0.590,0.878,0.560,1.078,0.759,0.355,0.615,0.581,���k��,2.8,��
2022/01/29,16:00,0.590,0.877,0.557,1.076,0.758,0.353,0.615,0.582,�k��,3.0,��
2022/01/29,16:10,0.590,0.877,0.558,1.076,0.759,0.354,0.614,0.582,��,1.7,��
2022/01/29,16:20,0.589,0.877,0.558,1.077,0.760,0.353,0.615,0.583,�쐼,2.0,��
2022/01/29,16:30,0.589,0.879,0.558,1.077,0.758,0.353,0.615,0.582,�쐼,1.5,��
2022/01/29,16:40,0.589,0.876,0.557,1.079,0.761,0.353,0.616,0.582,�k��,3.6,��
2022/01/29,16:50,0.589,0.877,0.557,1.079,0.761,0.353,0.616,0.580,�k,4.6,��
2022/01/29,17:00,0.587,0.877,0.558,1.079,0.758,0.353,0.614,0.582,�k,5.9,��
2022/01/29,17:10,0.588,0.877,0.557,1.079,0.757,0.354,0.616,0.581,�k,5.5,��
2022/01/29,17:20,0.588,0.878,0.558,1.076,0.758,0.353,0.614,0.581,�k�k��,5.1,��
2022/01/29,17:30,0.588,0.877,0.559,1.077,0.759,0.353,0.616,0.582,�k�k��,5.9,��
2022/01/29,17:40,0.587,0.877,0.557,1.078,0.758,0.353,0.617,0.583,�k�k��,5.5,��
2022/01/29,17:50,0.590,0.876,0.558,1.078,0.758,0.353,0.614,0.583,�k�k��,6.6,��
2022/01/29,18:00,0.589,0.877,0.560,1.078,0.758,0.354,0.615,0.583,�k�k��,5.0,�L
2022/01/29,18:10,0.590,0.878,0.556,1.079,0.758,0.352,0.615,0.581,�k��,5.1,��
2022/01/29,18:20,0.588,0.878,0.558,1.079,0.759,0.354,0.617,0.582,�k�k��,4.9,��
2022/01/29,18:30,0.589,0.877,0.557,1.079,0.758,0.353,0.616,0.581,�k��,4.0,�L
2022/01/29,18:40,0.590,0.879,0.558,1.078,0.760,0.354,0.614,0.581,�k��,4.0,�L
2022/01/29,18:50,0.588,0.878,0.559,1.078,0.760,0.353,0.616,0.582,�k��,2.5,�L
2022/01/29,19:00,0.589,0.879,0.557,1.080,0.758,0.354,0.613,0.582,�k��,3.0,��
2022/01/29,19:10,0.588,0.878,0.558,1.081,0.759,0.353,0.613,0.581,���k��,3.2,�L
2022/01/29,19:20,0.590,0.878,0.556,1.077,0.759,0.352,0.614,0.582,��,2.6,�L
2022/01/29,19:30,0.588,0.879,0.557,1.080,0.758,0.353,0.613,0.582,���쐼,1.9,�L
2022/01/29,19:40,0.591,0.880,0.559,1.081,0.757,0.353,0.615,0.582,�쐼,2.6,�L
2022/01/29,19:50,0.589,0.880,0.559,1.079,0.759,0.354,0.616,0.580,��쐼,4.3,�L
2022/01/29,20:00,0.589,0.880,0.560,1.079,0.759,0.354,0.613,0.581,��쐼,3.5,�L
2022/01/29,20:10,0.590,0.879,0.559,1.078,0.759,0.354,0.614,0.581,�쐼,3.8,��
2022/01/29,20:20,0.589,0.877,0.557,1.078,0.757,0.354,0.615,0.580,�쐼,4.9,��
2022/01/29,20:30,0.590,0.879,0.558,1.079,0.759,0.354,0.614,0.582,�쐼,4.5,��
2022/01/29,20:40,0.589,0.879,0.557,1.081,0.759,0.354,0.614,0.580,��쐼,3.8,��
2022/01/29,20:50,0.589,0.879,0.558,1.079,0.758,0.354,0.614,0.582,�쐼,3.3,��
2022/01/29,21:00,0.589,0.878,0.559,1.078,0.757,0.352,0.612,0.582,��,3.0,��
2022/01/29,21:10,0.587,0.879,0.558,1.079,0.759,0.352,0.612,0.581,��,1.2,��
2022/01/29,21:20,0.589,0.879,0.557,1.079,0.758,0.354,0.614,0.581,��,2.9,��
2022/01/29,21:30,0.588,0.876,0.555,1.076,0.758,0.353,0.614,0.581,��,4.2,��
2022/01/29,21:40,0.589,0.876,0.557,1.078,0.760,0.353,0.615,0.580,��,5.1,��
2022/01/29,21:50,0.589,0.879,0.558,1.079,0.757,0.354,0.615,0.580,��,4.2,��
2022/01/29,22:00,0.588,0.877,0.556,1.077,0.760,0.352,0.614,0.580,��,5.9,��
2022/01/29,22:10,0.589,0.875,0.555,1.079,0.758,0.353,0.613,0.581,���쐼,6.1,��
2022/01/29,22:20,0.587,0.877,0.557,1.078,0.758,0.353,0.614,0.582,��,7.0,��
2022/01/29,22:30,0.589,0.876,0.558,1.076,0.758,0.353,0.615,0.582,��,7.1,��
2022/01/29,22:40,0.589,0.876,0.555,1.075,0.758,0.353,0.614,0.580,���쐼,6.0,��
2022/01/29,22:50,0.589,0.877,0.558,1.078,0.759,0.352,0.613,0.582,��,6.1,��
2022/01/29,23:00,0.589,0.877,0.558,1.076,0.758,0.353,0.615,0.581,��,7.4,��
2022/01/29,23:10,0.589,0.876,0.556,1.076,0.758,0.353,0.613,0.581,��,7.3,��
2022/01/29,23:20,0.588,0.878,0.559,1.075,0.759,0.354,0.614,0.581,��,5.4,��
2022/01/29,23:30,0.588,0.877,0.557,1.080,0.758,0.354,0.614,0.580,���k��,5.2,��
2022/01/29,23:40,0.587,0.877,0.557,1.080,0.758,0.352,0.614,0.581,�k�k��,3.7,��
2022/01/29,23:50,0.587,0.876,0.557,1.077,0.759,0.351,0.615,0.580,�k��,5.6,��
